Weather in Novoburino

Russia / Chelyabinsk Oblast     55°58′57″N   61°38′57″E
temp.,
°C
wind,
m/s
gust,
m/s
humid.,
%
clouds,
%
prec.,
mm/h
press.,
hPa
HPBL,
m
8 march, mon
mon823:00−15wnw349592 0.3 100862
02:00−18wnw459058 0.0 100870
05:00−20w349329 0.0 101037
08:00−20sw34941 0.0 100944
11:00−14ssw598850 0.0 1008281
14:00−10s71292100 0.1 1006787
17:00−7ssw61283100 0.4 1004707
20:00−8ssw6128695 0.0 1003270
9 march, tue
tue923:00−6sw8158394 0.0 1004399
02:00−8sw5108912 0.0 1005216
05:00−9ssw498945 0.0 1005175
08:00−6s51493100 0.1 1002591
11:00−4sw9158683 0.1 10011094
14:00−4wsw8127769 0.2 10041290
17:00−5w4108157 0.3 1008453
20:00−10wsw458321 0.0 101059
10 march, wed
wed1023:00−12wsw348844 0.0 101232
02:00−14w1190100 0.0 101121
05:00−13ese2390100 0.0 100924
08:00−12ese3892100 0.0 1006199
11:00−8se5995100 0.3 1003432
14:00−5ese6995100 1.3 1000595
17:00−5ese6996100 3.0 998636
20:00−6e61195100 2.1 997522
11 march, thu
thu1123:00−6ene6995100 4.1 997444
02:00−10n91495100 2.6 998520
05:00−15n91494100 3.4 1000549
08:00−17n81395100 1.3 1002579
11:00−17nnw71193100 1.9 1005613
14:00−15nnw71190100 0.3 1006693
17:00−14nnw5981100 0.4 1008732
20:00−17nnw4993100 0.0 1011328
12 march, fri
fri1223:00−19nw3396100 0.1 101367
02:00−21n2397100 0.0 101541
05:00−23n2398100 0.1 101632
08:00−26nnw3395100 0.0 101942
11:00−21nw248850 0.0 1021262
14:00−16wsw368230 0.0 1021629
17:00−13sw358863 0.0 1020352
20:00−15wsw448894 0.0 102253